GFSGL_sfc_wetblb_000.txt.gz
Wetbulb
37.68 37.92 37.46 38.56 37.73 36.23 34.38 34.57 35.32 37.33 37.16 36.68 37.72 37.31 37.52 38.31 38.10 37.31 36.99 36.52 35.71 35.46 35.09 34.14 33.02 33.43 32.66 32.91 32.88 33.11 32.99 32.95 30.67 32.46 33.77 35.53 36.66 37.78 38.49 39.57 41.10 40.90 42.74
38.50 37.60 36.91 35.33 33.27 32.96 33.47 34.26 35.36 35.49 36.05 36.01 36.96 36.90 36.93 35.81 35.16 34.95 34.24 33.87 32.79 31.79 31.69 31.18 31.18 33.13 31.64 31.94 31.74 31.12 31.52 32.00 31.23 29.36 31.30 32.72 33.87 36.58 37.72 37.56 38.93 40.35 40.04
38.10 36.42 33.21 31.56 31.18 32.04 32.96 34.56 35.89 36.31 36.80 36.50 36.43 36.71 36.41 35.70 34.43 33.04 31.92 31.23 30.56 30.35 29.70 29.33 29.35 29.33 28.17 28.86 28.96 28.70 29.03 30.96 30.25 29.71 28.97 31.52 32.62 34.04 34.68 35.91 36.74 37.83 38.56
37.83 35.28 33.20 32.22 31.89 32.59 35.59 36.38 36.78 36.95 37.21 37.12 36.96 35.66 34.25 32.35 31.82 31.60 30.75 28.65 27.95 28.27 28.36 27.75 27.20 26.97 26.63 26.60 27.08 27.14 27.94 27.49 28.00 27.79 28.14 28.44 29.83 31.60 32.20 31.17 31.28 34.13 34.37
37.49 37.36 36.16 37.79 38.16 36.70 36.66 37.29 37.54 37.58 37.87 37.98 36.84 32.66 31.41 30.91 30.97 29.37 28.64 27.85 27.04 26.54 27.31 27.42 27.69 28.53 30.84 29.93 28.52 27.57 27.23 26.84 27.65 27.47 26.99 27.17 27.00 26.99 27.62 29.43 29.12 30.51 32.05
37.38 37.17 38.95 40.15 39.22 38.30 38.52 37.96 37.59 37.31 36.91 36.98 31.90 28.62 28.32 29.86 33.02 31.60 31.16 27.96 27.63 26.96 25.81 26.33 26.36 28.52 28.44 29.54 30.04 30.52 29.57 26.80 25.99 25.64 25.68 24.63 25.08 25.13 26.63 26.58 26.79 26.68 25.49
36.96 34.83 34.06 35.29 36.23 36.84 37.00 36.26 34.15 30.81 29.19 27.66 27.37 27.57 27.86 28.12 31.55 31.70 31.11 28.01 27.10 26.23 25.25 25.42 26.14 27.15 28.11 27.53 28.51 29.13 29.13 29.76 28.41 28.19 26.94 27.01 26.26 27.49 27.14 26.50 27.04 26.79 26.49
31.47 32.48 34.21 34.04 31.79 30.77 29.70 28.79 28.08 27.61 26.45 25.95 26.21 27.16 26.58 26.67 29.69 29.51 29.16 25.97 24.51 24.62 24.85 25.19 25.24 25.75 26.88 27.25 27.26 26.88 27.41 27.69 27.94 27.83 27.53 27.69 28.87 29.20 28.38 28.28 27.94 28.34 28.99
32.88 33.26 33.22 30.21 28.86 28.72 27.33 25.94 25.90 25.27 25.12 25.49 27.00 25.79 24.29 24.55 27.67 28.04 27.34 22.77 22.06 22.41 24.83 25.62 25.59 25.88 27.48 29.07 27.10 26.47 26.39 27.51 30.01 31.10 31.84 31.05 30.82 31.46 30.67 28.42 26.76 26.33 25.14
31.25 30.21 29.09 28.76 27.54 25.64 24.49 24.20 24.66 24.02 25.44 25.57 24.27 23.93 24.26 21.80 25.46 27.30 26.50 23.32 21.20 23.71 23.94 26.02 27.02 26.81 28.23 29.04 27.46 26.69 25.40 26.59 28.16 28.58 28.61 29.77 31.55 31.43 31.70 30.57 29.54 26.55 26.01
30.06 28.97 28.25 27.50 26.13 24.61 23.79 23.64 23.05 23.04 23.00 18.20 16.26 18.66 20.86 22.70 22.14 26.35 26.86 25.12 24.83 24.12 24.48 24.42 25.72 28.22 28.05 28.22 28.20 26.37 26.30 28.29 28.82 29.39 28.27 27.88 28.77 29.06 30.42 31.06 31.21 29.93 27.66
28.82 27.27 26.66 26.37 25.88 24.93 23.13 22.70 22.74 21.36 19.22 17.19 13.26 15.69 18.59 17.09 23.87 24.72 25.87 26.44 26.79 25.50 24.78 26.12 26.52 26.73 26.62 26.22 25.45 26.15 26.88 26.40 26.06 26.63 26.73 26.56 27.13 27.81 29.19 29.82 30.22 30.64 31.09
27.60 26.29 25.95 26.27 25.50 24.61 22.96 22.10 21.62 20.44 17.33 16.71 20.63 19.10 19.53 21.27 19.80 23.48 24.32 26.00 26.98 25.52 27.26 27.88 25.95 24.74 23.91 22.91 24.11 25.08 23.88 23.86 23.69 24.39 25.45 26.15 27.63 28.82 30.34 30.24 30.57 30.59 30.94
26.84 26.23 25.73 24.71 24.32 22.89 23.09 23.24 21.93 17.71 16.23 19.99 18.44 17.95 19.59 18.83 18.98 20.45 24.39 24.49 26.24 27.49 25.99 24.84 23.78 23.38 20.29 20.21 21.41 22.00 22.03 22.72 22.56 23.04 24.41 26.69 28.23 28.33 28.26 29.65 28.41 28.70 28.56
26.95 26.99 25.70 24.67 23.43 23.23 23.09 22.01 22.44 21.11 18.41 19.11 17.04 16.81 18.22 17.45 20.08 25.12 24.94 24.30 25.63 25.42 24.64 22.52 20.26 19.02 17.66 18.76 19.01 19.11 19.97 20.97 20.92 22.00 23.11 24.51 25.92 26.48 26.48 28.27 28.78 28.41 26.99
26.40 25.58 21.38 20.63 19.90 22.07 21.25 20.87 24.74 23.97 24.97 24.34 24.04 21.05 21.40 23.05 24.74 24.88 24.80 25.21 25.13 24.12 21.23 18.37 17.25 16.30 14.93 17.24 16.96 16.06 17.24 17.48 18.74 20.18 21.47 23.92 24.02 24.38 24.70 25.01 26.79 26.99 25.96
20.28 21.97 19.10 19.95 18.10 16.74 15.97 15.93 11.03 16.59 22.18 22.35 22.84 22.55 22.57 22.81 23.73 23.34 22.92 22.90 22.52 20.23 17.39 16.53 15.11 14.89 14.81 15.75 16.33 16.27 14.89 16.06 17.98 18.39 18.98 19.85 21.49 24.25 24.09 24.00 25.49 26.77 26.64
16.09 16.44 17.21 15.60 13.55 13.24 7.13 9.24 6.06 5.93 6.35 10.45 17.18 19.96 20.69 21.89 22.15 21.62 20.35 18.44 15.39 16.23 15.35 14.71 13.74 14.08 14.63 14.35 14.15 13.90 15.07 15.27 15.31 15.38 16.58 17.38 17.48 20.27 19.49 21.24 22.62 22.40 22.88
24.19 19.62 11.39 9.96 9.25 8.89 7.11 6.74 5.46 5.55 5.49 9.41 12.90 14.06 14.90 19.52 19.46 19.13 18.03 13.32 12.08 12.27 13.03 13.19 13.33 13.19 13.21 13.49 12.70 12.33 12.41 14.37 13.85 12.33 13.80 14.81 14.47 18.15 21.12 17.50 17.21 16.03 18.42
22.36 19.33 14.48 13.84 11.58 10.91 9.21 7.45 9.06 7.12 9.21 12.03 9.28 9.68 14.63 14.61 12.38 12.10 13.04 12.04 11.48 11.51 11.19 11.48 11.80 12.02 11.70 12.06 12.37 11.88 12.66 13.53 14.42 12.50 10.78 10.65 11.32 12.92 12.94 14.95 12.87 14.08 15.15
17.39 17.83 16.85 15.08 12.85 10.97 7.47 6.57 5.89 6.85 9.28 11.68 6.15 7.19 13.96 12.50 11.31 11.78 11.48 11.13 10.55 10.47 10.03 10.17 9.97 10.03 10.83 11.03 11.42 10.10 10.94 12.53 13.90 12.89 10.37 10.62 7.34 10.03 11.98 12.15 12.55 13.86 14.80
18.58 14.92 14.34 11.45 10.72 6.79 6.77 6.94 2.90 5.42 8.40 8.10 7.65 9.87 13.27 10.64 10.67 11.78 11.42 10.58 10.94 10.90 10.65 9.50 8.20 9.06 9.79 9.76 9.85 9.07 9.27 10.03 11.14 11.78 10.00 9.35 9.22 8.90 9.25 9.96 10.41 10.93 12.85
21.75 13.65 11.27 12.54 8.12 5.27 2.84 3.36 0.55 -0.90 4.51 3.94 4.87 8.13 10.14 9.97 9.77 11.45 10.77 9.54 10.65 10.09 9.84 8.92 7.45 7.28 8.25 8.21 9.00 9.75 9.16 9.09 8.60 7.31 8.39 6.53 8.77 8.23 8.12 10.17 10.27 11.25 10.98
15.35 13.06 16.90 9.80 1.82 6.72 -1.44 -1.62 -3.25 1.26 5.07 2.19 1.60 3.38 7.54 8.74 9.07 9.53 9.96 9.03 9.65 9.39 9.03 7.64 7.73 7.02 7.62 7.44 7.75 8.09 8.45 9.49 7.94 7.14 3.22 5.08 6.87 6.37 6.92 8.80 10.29 9.29 10.36
21.51 22.59 13.97 6.17 3.27 3.64 0.37 -1.98 -3.80 -4.70 -2.71 -0.90 0.50 3.22 6.62 8.04 10.78 10.61 10.56 10.01 9.98 8.90 8.96 8.23 7.57 7.53 7.11 7.21 6.64 5.99 4.84 5.52 5.55 4.12 6.58 4.54 3.51 3.31 2.50 4.60 3.18 6.68 6.45
24.22 23.66 18.72 9.57 4.00 4.14 4.30 1.46 -1.26 -4.88 -2.89 0.19 -1.44 2.43 3.93 5.83 8.68 9.21 11.45 11.40 10.30 9.56 9.43 8.99 8.20 7.05 7.28 8.66 8.02 7.38 3.72 3.42 4.09 3.18 3.42 6.14 3.77 2.50 1.97 2.46 2.34 4.22 3.81

GFSGL_sfc_wetblb_003.txt.gz
Wetbulb
45.34 44.57 44.15 43.56 41.38 40.40 40.69 41.23 41.57 42.60 41.70 41.18 40.87 40.89 40.48 40.00 38.95 39.20 39.39 39.01 38.59 38.71 39.14 38.71 37.67 38.32 37.53 37.82 38.26 37.70 36.62 36.27 33.25 35.82 38.30 39.81 39.65 39.93 40.62 42.13 43.03 43.09 43.49
44.16 43.84 43.00 40.76 39.36 39.64 39.92 40.79 41.98 41.59 40.98 40.64 40.26 39.89 39.44 39.02 40.21 38.76 37.36 37.06 36.30 35.77 35.98 36.12 35.58 35.63 35.97 36.49 36.31 35.75 36.09 36.66 34.87 32.93 36.18 37.28 37.97 39.72 40.59 40.82 40.91 41.86 43.04
43.36 43.08 41.07 40.06 39.03 38.91 40.98 41.65 42.10 41.72 41.57 41.23 40.33 39.54 39.37 37.98 37.36 36.59 35.78 35.36 35.37 35.21 34.80 33.90 33.48 33.36 32.83 33.60 33.52 33.41 33.78 34.24 34.64 33.25 32.92 35.72 36.55 37.49 37.31 38.29 38.81 39.82 40.38
42.44 42.08 41.31 40.24 39.77 40.14 40.67 41.45 41.20 41.09 40.33 38.96 39.81 39.91 38.27 36.31 35.37 35.33 34.85 33.99 33.30 32.69 32.55 32.50 32.12 31.65 31.19 31.51 31.47 31.60 31.82 32.01 32.28 31.65 31.65 32.39 33.78 35.37 35.54 34.40 34.85 37.41 37.26
41.67 40.98 40.24 41.16 40.83 38.97 38.34 38.74 39.64 40.44 40.18 39.65 38.86 37.40 34.91 34.17 33.77 34.40 33.21 32.40 32.03 31.63 32.20 31.71 31.60 31.35 30.93 31.17 30.97 31.61 31.92 31.08 30.74 29.87 29.20 29.99 30.52 30.84 30.60 33.62 33.20 34.94 36.15
38.54 36.35 36.88 37.28 38.45 38.37 38.23 38.10 37.48 36.27 34.74 34.26 33.37 32.59 32.56 32.69 33.45 31.93 32.60 32.60 31.77 30.91 30.09 30.45 30.55 30.27 30.34 29.68 29.94 30.17 30.81 29.85 28.55 28.45 28.50 28.03 29.75 30.57 31.33 31.31 31.38 30.73 29.24
36.02 36.27 37.31 38.07 36.49 34.95 34.89 34.39 33.53 32.94 33.08 32.31 31.96 31.97 32.08 32.30 30.71 30.93 30.35 31.01 30.26 29.61 28.81 28.54 28.45 29.20 29.70 30.23 29.68 29.42 29.18 29.50 28.78 29.21 27.87 28.58 29.04 30.64 31.07 29.81 30.81 30.61 30.32
35.68 37.09 37.86 36.08 33.74 33.85 33.49 32.52 32.07 31.99 31.16 30.87 30.96 31.02 30.26 29.88 28.61 28.70 28.57 29.61 28.99 28.47 28.30 28.33 28.37 28.81 29.52 28.62 27.89 28.21 29.12 29.92 30.25 30.04 30.10 30.20 31.48 32.05 31.75 31.51 31.46 31.57 32.52
35.80 36.29 34.93 33.42 32.78 32.27 31.17 30.73 31.05 30.45 30.23 29.98 29.53 28.99 28.39 28.36 27.46 27.24 27.54 28.34 27.65 27.22 28.04 28.73 28.64 28.22 28.54 29.09 28.13 27.77 28.51 29.38 31.09 31.67 31.89 32.08 32.00 32.00 31.96 31.62 29.66 28.52 27.83
34.76 34.05 33.49 32.76 31.98 31.13 30.55 30.09 30.15 30.00 29.16 28.79 27.58 28.22 27.29 27.18 26.68 26.60 27.04 27.47 26.20 26.24 27.51 28.35 28.10 28.26 28.14 28.61 29.13 28.20 26.85 28.01 29.23 31.58 31.37 32.00 32.22 32.71 31.77 32.02 31.48 28.05 27.37
34.71 33.68 32.90 32.25 31.31 31.23 30.03 30.20 29.39 29.09 28.01 27.10 26.74 26.99 26.94 26.28 26.08 25.73 25.90 26.35 25.64 25.88 26.50 27.29 29.12 28.62 28.33 27.52 27.24 27.19 26.41 27.61 27.66 28.78 29.64 30.51 31.39 31.89 31.95 32.91 33.04 32.09 29.76
34.74 32.95 32.39 31.92 31.07 30.07 29.52 29.70 28.95 28.28 27.03 26.27 25.46 25.94 26.57 26.05 25.27 24.99 25.31 26.05 26.38 26.82 26.67 28.40 29.72 26.18 25.50 24.79 24.92 25.23 25.87 26.01 26.82 26.33 27.23 27.74 28.90 30.21 31.47 32.28 33.06 33.59 34.38
33.23 32.41 31.92 31.39 30.84 30.38 28.92 28.50 27.68 27.67 26.27 25.08 24.59 23.69 23.80 25.12 25.47 24.62 25.05 25.68 26.13 27.11 28.74 26.75 25.36 24.78 23.75 23.62 23.18 23.79 23.65 25.28 25.58 25.21 26.05 27.42 29.80 31.30 32.21 32.69 33.05 32.61 32.68
32.09 31.75 31.60 30.74 30.22 30.77 29.26 28.78 27.17 26.85 25.40 24.35 23.39 22.31 22.39 22.93 23.63 24.84 25.69 26.40 25.99 27.54 27.47 26.48 24.28 23.36 22.72 22.76 23.71 23.90 24.27 24.28 23.51 24.08 25.45 27.47 29.88 30.98 30.61 31.45 30.76 31.20 30.43
31.29 31.17 30.59 29.96 28.95 28.31 28.46 27.49 26.94 27.14 25.37 23.95 23.08 22.83 21.52 21.12 22.69 24.82 24.66 24.26 25.57 24.91 25.33 23.95 21.69 20.81 21.22 21.63 22.15 22.11 22.78 23.01 22.91 23.92 25.07 26.49 28.66 29.71 29.80 31.20 30.57 30.52 29.25
29.56 29.76 29.78 28.88 28.20 27.27 26.89 26.53 26.07 24.59 24.48 23.79 23.43 22.93 23.06 22.89 23.95 23.88 23.42 23.97 23.47 22.74 21.50 19.29 18.16 18.92 19.57 19.61 19.46 20.11 21.48 21.08 21.83 22.84 24.08 25.28 26.56 27.98 28.61 29.68 29.43 29.46 28.93
28.20 28.26 28.92 25.71 27.41 26.65 25.76 24.89 23.29 24.58 22.69 21.94 22.21 21.89 21.78 21.98 22.57 22.24 21.77 21.45 20.96 20.11 18.09 17.29 16.56 16.72 18.01 18.79 18.85 19.01 19.01 20.75 21.80 22.02 22.70 23.39 24.90 27.39 28.31 28.66 28.67 28.63 28.39
27.13 22.66 27.21 27.27 26.87 25.91 25.20 23.89 22.87 21.71 20.41 20.45 21.05 20.11 20.07 20.79 20.72 20.27 19.45 18.06 16.13 16.67 16.27 15.82 15.27 16.19 16.70 17.20 17.85 17.87 19.13 20.69 20.76 20.77 21.48 22.08 23.04 25.82 26.52 26.73 27.56 28.01 29.08
28.86 28.82 27.28 26.69 26.12 23.60 24.27 23.84 22.87 22.19 21.34 20.27 19.83 19.65 18.90 18.83 18.45 18.04 17.48 14.95 13.53 13.42 14.01 14.66 14.99 15.26 16.10 16.78 17.29 17.69 18.83 19.53 19.93 20.28 20.68 20.84 21.42 22.81 23.76 25.14 26.18 23.22 25.83
28.78 25.02 22.25 26.76 26.09 25.15 24.58 23.00 22.44 21.82 21.22 19.63 18.41 17.18 17.94 17.47 16.10 15.56 15.80 14.84 13.76 13.24 13.24 13.65 14.33 14.75 15.25 15.89 17.07 17.20 18.54 19.54 19.78 20.28 20.35 21.17 21.48 22.46 22.56 23.29 24.06 24.81 24.74
27.69 27.44 21.21 26.48 25.44 24.39 23.50 22.69 21.83 21.29 20.49 19.51 18.25 17.32 15.67 15.58 15.09 15.28 14.57 14.17 13.34 12.91 12.73 13.27 13.84 14.45 15.19 15.95 16.16 16.58 17.29 18.36 18.41 18.93 20.05 21.20 21.52 21.14 21.94 23.23 23.72 23.63 23.51
26.60 25.53 26.54 25.40 25.02 24.51 23.32 22.25 21.30 20.37 20.08 19.05 18.27 17.83 15.17 16.46 15.26 15.04 14.19 13.35 13.98 13.77 13.68 13.38 13.03 13.48 13.84 13.76 14.16 15.69 16.61 16.46 17.31 17.38 19.48 20.44 21.57 22.03 22.41 22.47 22.50 22.67 22.57
26.21 26.65 26.08 25.30 23.74 20.72 23.54 22.29 21.22 20.80 20.49 20.08 18.18 17.03 16.96 16.01 15.51 15.48 14.78 14.49 14.08 13.46 13.42 13.24 12.75 12.20 13.07 13.93 14.17 14.69 14.59 15.03 15.66 15.88 17.19 19.89 20.89 20.96 21.84 21.75 20.96 20.84 20.37
26.62 26.42 25.75 25.75 23.86 22.54 22.72 22.27 21.26 17.53 18.75 20.06 19.10 17.86 17.02 16.41 15.78 15.71 15.21 15.19 14.48 13.97 13.60 12.56 12.46 11.93 12.07 12.46 13.53 13.70 12.81 13.29 14.76 16.11 16.10 17.66 18.61 19.42 20.33 20.17 20.54 19.29 20.05
26.93 27.07 27.12 25.95 24.41 23.14 21.72 22.92 21.71 20.56 20.02 20.02 19.98 18.88 17.61 17.33 16.24 16.29 16.70 16.08 14.76 13.90 13.27 12.74 12.04 11.95 11.91 11.44 11.59 10.94 8.86 8.73 10.57 11.12 17.17 17.20 15.89 16.02 15.64 17.43 17.47 18.93 17.16
27.53 27.69 27.59 26.71 25.00 22.91 22.27 22.01 22.27 21.22 19.87 20.56 20.21 19.29 18.53 17.38 16.47 16.28 16.44 16.45 15.48 14.50 13.23 13.01 12.66 11.56 11.47 12.42 11.39 10.28 8.48 8.19 9.27 8.20 15.00 16.65 15.30 14.83 15.91 15.34 15.05 17.32 16.43

GFSGL_sfc_wetblb_006.txt.gz
Wetbulb
50.66 49.70 48.71 47.76 46.46 46.10 45.79 45.61 45.62 45.81 45.07 44.48 44.10 43.90 43.24 41.62 41.10 40.64 40.26 40.64 40.34 39.83 39.94 39.85 39.22 40.19 39.62 39.78 40.31 40.12 39.02 38.80 35.54 37.89 40.42 41.86 41.85 42.28 42.69 43.69 43.75 43.89 44.39
47.58 47.11 46.97 46.11 45.91 45.20 44.99 45.01 44.47 44.08 44.50 44.01 43.01 41.74 41.73 41.25 40.84 39.70 39.58 40.07 39.19 38.41 38.59 38.69 38.03 37.84 37.99 38.42 38.45 37.79 38.10 38.78 37.01 35.26 38.31 39.19 40.03 41.52 42.20 41.98 42.03 42.66 43.53
46.70 46.26 45.77 45.44 45.10 44.27 43.71 43.26 43.29 42.34 42.05 41.85 41.69 41.07 40.49 40.18 40.49 40.06 39.26 38.75 38.82 38.67 38.10 37.22 36.68 36.70 36.20 36.74 36.87 36.43 36.88 36.73 37.13 35.58 35.28 38.28 38.93 39.94 39.73 40.69 40.87 41.80 41.83
45.92 45.18 44.63 44.64 43.71 42.99 41.96 42.32 41.90 41.80 41.09 40.71 40.23 39.64 39.41 38.51 38.06 38.10 37.70 37.26 36.87 36.55 36.47 36.16 35.80 35.19 34.67 34.80 34.59 34.56 34.54 34.66 35.01 34.32 34.35 35.12 36.34 37.99 38.24 36.91 37.00 39.37 39.26
45.03 43.66 42.11 42.33 42.19 41.86 41.34 40.77 40.42 39.70 38.87 38.54 37.75 37.65 37.57 37.10 36.54 35.82 35.79 36.13 35.88 35.59 35.55 35.22 35.40 34.75 32.56 32.38 32.23 32.53 33.04 33.07 33.65 33.85 33.59 34.31 34.53 34.86 34.64 36.68 35.46 36.61 38.22
43.53 41.11 41.08 41.46 41.10 40.11 39.42 38.85 38.30 37.73 37.48 37.18 36.60 36.36 35.98 35.83 32.13 31.61 32.41 33.96 34.28 34.00 33.74 34.55 34.63 33.63 33.33 32.33 31.30 30.83 31.18 31.11 31.18 30.91 30.47 30.25 32.22 32.78 34.51 33.36 33.44 32.35 30.52
41.91 40.64 40.77 40.99 39.16 38.37 37.85 37.15 36.65 36.56 36.72 35.93 35.72 35.49 34.96 35.12 29.95 29.86 29.53 31.73 32.11 32.44 32.74 32.67 32.28 32.68 32.22 32.79 31.75 31.56 30.89 30.40 29.00 29.66 28.11 29.12 29.71 31.64 32.21 31.74 32.12 31.74 31.44
41.07 40.57 40.56 39.15 37.57 37.15 36.52 36.00 36.10 36.11 35.45 35.09 34.73 34.13 33.71 33.53 30.19 28.76 27.98 30.55 31.64 31.84 32.03 32.17 31.66 32.00 32.19 30.80 29.82 29.17 29.94 31.06 32.01 31.81 31.04 31.08 31.99 32.46 33.40 33.53 33.23 33.03 33.79
39.99 39.13 39.01 38.06 36.75 35.90 35.47 35.47 35.66 35.09 34.69 34.26 33.57 32.92 32.27 32.12 30.11 28.00 27.77 29.35 29.43 29.63 30.76 31.44 30.31 29.28 29.73 29.84 29.39 29.27 29.47 30.39 32.38 32.57 32.26 32.01 32.07 32.34 32.65 32.59 31.44 30.35 30.47
39.29 39.52 39.13 38.06 36.28 35.19 35.39 35.44 35.67 35.31 33.92 33.29 32.08 32.20 30.60 30.28 28.92 27.34 27.40 28.21 27.05 27.29 28.49 29.00 29.46 30.08 29.65 29.26 29.50 29.37 27.50 28.36 30.09 31.49 32.19 32.70 32.59 32.88 31.79 32.80 32.77 29.28 29.67
40.10 39.57 38.75 37.70 35.79 35.82 35.72 36.04 35.37 34.45 32.98 31.02 30.84 30.20 30.19 29.40 28.46 27.09 26.52 26.13 26.95 25.91 26.71 28.57 30.46 29.28 27.70 27.18 26.83 27.52 26.77 28.43 27.32 27.71 28.83 29.83 31.44 33.05 33.92 34.60 34.53 33.21 30.55
40.29 39.37 37.89 36.75 35.73 35.31 35.66 35.53 34.61 33.65 30.97 29.58 30.35 30.02 29.34 30.72 27.81 27.00 26.19 26.55 27.08 27.06 27.07 29.13 30.78 26.47 26.28 25.58 25.50 25.29 24.90 25.76 27.24 27.91 28.73 27.88 29.20 31.06 32.78 34.13 34.49 34.67 35.18
38.39 37.43 36.93 36.27 35.57 35.84 35.11 34.33 32.82 31.86 28.99 28.01 27.32 26.87 27.13 28.13 28.34 26.29 26.45 26.32 26.24 27.08 29.03 28.19 25.41 25.29 25.30 25.40 24.59 24.17 25.03 28.28 27.68 27.08 27.56 28.60 30.75 32.46 33.81 33.78 34.44 34.48 34.76
36.81 36.32 36.49 35.70 34.69 35.38 34.81 33.24 31.97 29.70 27.51 26.91 26.30 25.55 25.64 25.50 25.16 25.87 26.27 26.51 26.39 27.38 26.54 28.95 25.96 24.97 25.55 26.12 26.21 26.01 26.59 26.97 25.79 26.01 27.02 28.94 30.68 31.78 32.51 33.38 32.16 32.93 31.73
35.34 35.22 34.88 34.62 34.39 34.04 33.32 32.28 30.59 29.97 27.17 25.76 25.50 24.96 23.54 22.82 23.43 24.80 24.29 24.14 25.02 24.45 25.31 25.73 23.93 23.16 23.72 24.48 24.21 24.55 25.82 26.13 25.78 26.47 27.14 27.80 29.00 30.70 32.16 32.94 32.26 32.13 30.96
32.17 33.51 34.25 33.73 34.09 32.70 31.92 31.27 26.64 25.41 24.32 23.73 23.36 23.54 24.08 23.33 23.22 23.29 23.04 22.88 22.71 22.69 23.52 21.21 20.72 20.63 21.49 22.69 22.81 23.33 24.45 24.05 24.91 26.20 26.97 27.46 27.73 29.51 30.39 31.50 30.37 30.87 30.66
32.08 32.12 33.78 31.61 32.22 31.17 30.42 29.29 27.54 28.65 24.58 22.74 22.16 22.15 21.64 21.63 21.89 21.80 21.77 21.28 21.18 21.53 20.29 19.58 19.33 19.55 20.71 21.49 21.61 21.82 21.85 23.61 25.21 25.00 25.96 26.28 26.68 28.06 30.27 30.46 30.78 29.66 29.32
32.10 29.06 32.50 32.70 32.26 30.91 29.77 28.53 27.85 26.06 25.19 25.44 24.41 21.60 21.07 20.69 20.61 20.27 19.99 20.56 19.11 19.16 18.70 18.23 18.11 19.32 19.90 20.25 20.32 20.44 21.80 23.03 23.30 23.76 24.68 25.63 26.13 26.52 27.18 28.03 29.47 29.50 30.89
31.06 31.55 31.55 31.95 30.83 28.76 28.81 27.95 27.28 26.37 25.51 24.28 24.11 23.15 22.51 20.82 20.29 19.91 19.76 19.13 17.37 16.75 16.88 17.60 18.65 18.68 19.23 20.08 20.72 20.86 22.57 22.66 23.02 23.71 23.78 24.20 25.19 25.83 25.76 26.32 26.89 27.19 28.08
29.92 28.00 28.48 30.35 29.80 28.76 27.93 27.09 26.33 25.87 25.21 24.08 22.79 21.16 21.04 21.15 19.98 19.52 19.27 18.54 17.67 16.59 16.74 17.11 17.87 18.55 18.93 19.60 20.44 21.25 22.10 22.07 22.16 22.55 23.59 24.20 24.62 25.62 25.13 25.18 25.58 25.71 25.63
30.23 29.42 26.46 29.81 28.79 28.05 27.23 26.41 26.15 25.54 24.66 23.86 23.18 21.36 17.70 19.16 18.84 18.59 18.08 17.43 16.87 16.84 16.74 17.17 18.01 18.57 18.63 19.06 19.51 20.15 20.87 21.42 21.31 21.45 22.58 23.84 25.45 24.10 25.16 25.46 25.44 25.43 25.23
30.17 30.27 29.79 28.84 28.50 27.73 27.09 26.75 25.83 25.23 24.49 23.63 23.42 22.50 18.08 20.33 19.15 18.67 18.52 17.94 17.53 17.45 17.44 17.44 17.53 17.89 17.56 17.65 17.99 18.88 19.27 19.88 20.84 20.71 21.40 23.31 24.33 24.69 24.93 24.81 24.47 24.58 24.42
29.83 29.59 29.11 28.03 28.33 26.55 26.89 26.40 25.76 25.57 25.06 24.21 23.80 22.75 21.76 20.62 19.70 19.15 18.81 18.46 17.99 17.33 16.77 16.99 17.19 15.96 16.97 17.65 17.99 18.33 17.96 17.89 19.25 20.68 20.23 21.74 22.70 23.06 24.20 23.76 23.45 23.49 23.00
29.34 29.59 28.77 28.60 28.01 27.09 26.57 26.14 26.12 24.47 24.34 24.31 24.17 23.60 22.55 21.67 20.68 19.76 19.92 19.83 19.05 18.36 17.55 16.72 15.78 15.07 15.28 15.95 16.95 17.18 16.40 15.99 17.99 19.07 20.46 21.10 21.39 22.21 23.07 22.49 22.59 21.96 22.20
30.21 29.93 29.70 29.18 28.11 27.07 26.53 26.19 25.97 25.83 25.06 24.81 24.43 24.15 23.20 22.17 21.11 20.71 20.70 20.59 19.39 18.45 16.81 16.69 16.15 15.42 14.97 14.32 14.23 14.11 13.12 12.69 14.31 13.65 20.55 20.92 20.02 19.89 20.04 21.30 21.30 21.90 21.09
29.59 29.89 29.66 29.65 28.91 27.86 26.77 25.76 25.76 25.74 25.03 25.14 24.57 24.40 23.47 22.30 21.56 20.90 20.34 19.68 18.99 18.56 16.47 17.06 16.38 14.97 14.68 15.53 13.59 12.42 11.52 11.71 12.78 13.42 18.49 20.02 18.78 18.59 19.31 18.84 18.48 20.52 19.85

GFSGL_sfc_wetblb_009.txt.gz
Wetbulb
51.42 50.27 49.30 48.83 48.07 47.45 46.70 46.84 46.16 45.17 45.06 44.47 44.20 43.66 43.09 42.39 42.66 42.49 41.59 41.44 40.84 41.01 41.22 40.82 40.05 40.69 39.92 39.64 40.62 40.32 39.40 38.80 36.12 38.53 40.41 42.43 42.82 43.11 43.19 44.83 44.67 44.79 44.98
49.49 48.63 47.98 47.82 47.36 46.75 46.12 44.36 44.66 44.60 44.92 44.36 43.77 42.85 42.14 41.96 41.56 40.92 40.25 40.36 39.50 38.85 39.06 39.08 38.72 38.96 38.64 38.91 38.44 37.69 37.75 38.76 37.22 35.45 38.25 39.48 40.50 42.35 43.13 43.27 42.28 42.86 43.79
48.20 47.43 46.85 46.43 45.80 45.16 44.18 43.60 43.71 43.06 42.73 42.47 42.20 41.28 40.24 40.39 39.78 39.23 38.82 38.77 38.52 38.28 37.96 37.57 36.89 36.83 36.11 37.01 36.86 36.80 36.77 36.93 37.40 36.19 35.71 38.67 39.56 40.50 40.39 41.41 41.95 42.81 42.33
47.31 46.06 45.30 44.82 44.25 43.27 42.61 42.31 41.88 41.65 40.43 39.73 39.49 39.04 38.95 38.49 38.21 38.20 37.82 37.02 36.77 37.07 37.39 37.10 36.47 35.99 35.54 35.23 35.00 35.03 34.80 34.34 34.68 34.61 34.93 35.56 36.91 38.52 39.04 37.90 37.97 40.66 40.38
46.18 45.38 44.34 43.99 43.56 42.66 41.68 41.27 40.73 40.05 39.36 39.06 38.52 38.24 38.23 37.74 36.92 35.82 35.52 34.67 34.27 34.74 36.08 36.25 36.98 36.76 34.80 34.17 33.06 32.50 32.05 31.55 32.27 32.46 33.18 34.27 35.47 36.19 35.63 37.99 37.08 38.47 39.80
45.43 44.17 43.89 43.32 41.86 41.28 40.18 39.93 39.13 38.54 38.35 38.30 37.64 37.19 36.68 36.43 31.75 30.82 31.05 32.33 31.97 32.21 32.53 34.05 34.89 35.36 35.26 34.33 33.80 33.24 32.04 29.67 29.21 30.59 30.98 31.25 32.53 34.05 35.48 34.91 35.02 33.78 32.17
44.64 43.87 43.13 41.81 41.21 40.00 39.33 38.45 37.77 37.41 37.71 36.96 36.63 36.43 35.58 35.61 30.50 30.35 29.73 31.25 30.51 31.03 31.91 32.71 32.90 33.98 33.87 33.83 33.20 32.94 32.02 32.07 29.88 29.90 27.67 28.34 29.52 31.99 33.15 32.64 32.92 33.06 32.82
43.86 42.65 42.12 41.33 40.29 38.99 38.64 37.48 37.24 37.43 36.75 36.00 35.70 35.49 34.77 34.32 32.06 29.90 28.87 30.12 30.15 30.62 31.19 31.64 31.79 32.14 33.05 32.04 31.27 30.77 31.08 31.21 31.64 32.10 31.31 31.49 32.84 33.34 33.34 32.81 32.48 33.09 34.61
42.73 41.51 40.85 40.80 38.95 38.08 37.39 36.90 36.98 36.57 36.16 35.51 35.13 34.14 32.61 32.41 31.65 29.76 28.87 28.58 28.08 28.15 29.34 30.21 30.70 30.26 30.66 30.63 29.49 28.83 29.25 30.36 32.77 33.24 33.08 32.94 32.75 32.79 33.11 32.81 30.87 30.43 30.17
42.00 40.85 40.71 39.89 38.91 37.43 37.17 36.61 36.99 36.56 35.65 35.16 33.85 33.00 31.53 31.15 31.57 29.57 28.94 28.54 26.54 27.32 28.50 28.97 29.66 30.02 30.19 30.27 30.14 29.58 28.17 28.64 29.29 30.17 31.63 32.08 33.29 34.12 32.33 32.43 31.50 28.73 29.28
42.05 41.20 40.72 40.39 39.01 37.95 37.03 37.10 36.51 36.02 35.28 33.87 33.14 32.66 31.98 31.63 30.85 29.30 27.89 27.43 26.97 26.97 27.10 28.32 30.45 28.40 28.05 28.02 27.52 27.43 26.90 27.95 27.02 27.30 28.19 29.50 30.76 31.50 33.37 34.87 34.18 32.70 30.24
41.46 40.71 39.45 39.40 38.35 37.21 36.77 36.46 36.16 35.07 33.57 32.46 31.87 31.80 31.69 32.41 29.81 28.30 27.42 26.97 27.36 26.69 26.30 28.80 30.30 27.42 26.67 26.40 26.25 26.37 25.86 25.56 26.90 27.15 27.99 28.52 29.55 30.33 31.88 33.90 34.97 35.87 35.51
39.51 38.83 38.33 38.09 37.39 37.09 36.12 35.32 34.08 33.88 31.90 30.08 28.81 28.83 28.81 29.52 29.21 27.97 26.53 26.39 26.09 26.78 28.38 27.04 28.17 27.05 26.51 26.46 27.58 25.74 25.71 27.09 28.65 27.39 27.45 28.76 30.77 32.69 33.64 33.88 34.96 35.35 35.26
37.08 36.89 36.78 35.86 35.50 36.23 35.86 34.88 33.47 31.84 29.56 28.39 27.04 25.96 25.73 25.56 27.07 26.18 25.87 26.04 25.29 25.28 25.39 26.19 27.38 26.22 26.64 27.27 27.86 27.75 28.48 28.53 27.19 27.40 27.97 29.10 31.09 31.91 32.73 33.46 32.88 32.94 32.62
35.18 35.20 35.07 35.56 35.47 35.13 34.74 34.21 32.72 32.03 28.68 26.59 25.83 24.89 23.57 22.77 23.96 24.33 24.09 23.61 24.11 23.45 23.82 25.86 24.35 23.06 22.96 24.83 25.88 26.38 27.35 27.06 26.86 27.30 28.11 28.49 29.46 30.48 31.40 34.01 32.41 32.48 31.14
33.34 33.90 34.87 34.64 34.67 33.36 33.14 32.50 27.73 26.83 25.57 24.44 23.11 23.70 24.54 23.28 23.21 23.35 23.11 23.09 23.10 23.08 23.75 21.77 21.07 21.16 21.32 22.91 23.28 23.71 24.97 24.78 25.37 26.29 27.45 28.21 28.00 28.46 29.90 32.64 32.30 31.21 30.38
32.56 33.15 33.72 33.18 32.75 32.04 31.10 29.41 28.28 29.82 26.34 25.25 23.43 22.74 22.32 22.17 22.36 22.24 22.42 22.43 22.78 22.31 20.78 20.41 19.84 20.64 21.03 21.31 21.81 22.14 22.64 24.61 25.57 25.92 26.53 26.54 27.54 27.67 28.81 29.59 30.95 31.56 30.78
32.84 31.25 32.54 32.44 32.13 31.27 30.13 29.02 28.85 27.50 26.76 27.58 26.64 23.20 22.98 22.80 22.26 21.68 21.79 22.58 20.70 20.58 19.58 19.56 19.55 20.14 20.36 20.47 21.05 21.33 23.00 24.34 24.46 25.27 25.47 26.29 26.55 27.13 27.34 26.86 27.79 27.99 28.75
31.68 30.51 31.70 31.35 31.07 29.65 29.91 29.69 29.16 28.12 27.36 26.60 26.98 26.53 24.90 23.20 23.34 22.26 21.93 20.15 18.85 18.10 18.19 18.56 19.59 19.70 19.71 20.50 21.61 22.46 23.77 23.51 23.72 24.28 24.92 25.45 25.96 26.68 26.49 26.63 26.64 27.37 27.82
33.91 29.68 29.62 30.14 29.93 29.91 29.16 28.51 27.78 27.20 26.90 26.50 25.83 24.88 23.45 22.13 22.27 21.91 21.83 20.24 18.75 18.43 18.31 18.25 18.89 19.62 19.71 19.87 20.81 21.84 22.76 22.67 22.52 22.64 23.67 25.54 26.74 26.68 25.66 25.98 26.41 25.70 25.89
32.31 30.76 29.12 29.47 29.62 28.69 28.17 28.29 27.41 27.08 26.40 26.04 26.25 24.62 19.92 20.49 21.42 21.03 20.55 20.03 18.85 18.06 18.08 18.52 18.96 19.37 19.29 19.40 19.26 20.12 20.53 21.46 21.47 21.69 22.27 24.12 25.72 25.16 26.23 26.12 26.33 26.37 25.75
29.61 29.92 29.78 29.50 29.09 29.39 28.33 27.58 27.84 26.67 26.65 25.94 26.18 25.62 21.24 23.76 22.53 21.32 20.97 20.62 20.27 19.57 18.95 18.78 18.88 18.38 18.14 18.04 18.20 18.35 18.71 18.49 19.12 20.19 21.18 22.94 24.26 24.57 25.46 25.33 25.16 25.38 24.75
30.34 29.50 29.38 29.82 30.00 28.16 28.56 28.27 28.16 27.93 27.01 26.84 26.25 25.21 24.89 23.82 22.59 21.89 21.55 21.34 21.01 20.04 19.70 18.43 17.94 16.86 17.65 17.78 18.53 17.73 16.20 15.35 16.24 18.92 19.30 21.63 22.38 22.87 24.22 23.75 23.81 22.99 23.19
30.37 29.91 29.05 30.00 30.32 28.99 28.39 28.46 27.62 27.35 27.28 27.05 26.53 26.20 25.21 24.31 23.51 22.56 22.47 22.46 21.20 21.32 19.83 18.75 17.90 16.87 16.19 16.54 17.28 17.00 16.40 14.95 15.55 15.98 17.43 21.11 20.79 21.14 22.09 22.01 22.55 22.52 22.23
31.76 30.99 30.30 29.98 30.14 29.71 28.54 27.99 27.82 28.05 28.44 27.69 27.24 26.20 25.90 24.92 23.85 23.47 23.26 22.60 21.69 20.80 19.43 18.31 18.22 17.05 16.37 16.13 14.91 14.23 12.87 12.71 13.79 13.91 18.30 20.72 19.52 19.32 20.42 20.59 19.74 22.05 21.17
30.79 30.24 30.45 30.91 30.23 30.34 29.68 27.90 27.23 27.97 27.60 27.97 27.41 27.16 26.24 24.77 24.28 23.53 22.78 21.75 20.87 20.29 19.63 18.90 18.07 16.80 16.68 17.44 15.31 13.65 12.01 11.73 11.99 12.70 17.41 18.35 17.40 17.70 16.94 18.88 17.86 19.63 19.45

GFSGL_sfc_wetblb_012.txt.gz
Wetbulb
49.37 48.64 47.89 47.22 46.87 46.29 45.21 43.98 43.35 42.93 43.29 43.22 42.67 42.09 41.64 41.23 40.80 40.10 39.97 40.27 39.06 38.21 38.60 38.92 38.36 38.68 38.01 37.79 37.06 36.44 34.43 35.05 32.85 34.10 36.93 37.24 37.92 38.91 40.28 41.13 41.47 40.78 41.08
48.25 47.31 46.45 46.69 45.57 44.09 43.78 42.81 42.25 41.84 42.28 41.40 41.00 40.23 40.00 39.43 38.99 38.58 37.88 37.89 37.61 36.90 36.78 36.45 36.67 38.14 36.01 35.34 35.44 34.25 34.24 34.47 32.52 30.61 33.00 34.39 34.04 36.02 36.66 37.88 40.76 41.68 39.49
47.41 46.03 45.58 44.74 43.45 42.29 42.04 41.93 41.87 41.11 40.65 39.34 38.25 37.25 36.90 36.78 36.00 35.61 35.26 35.14 33.93 33.49 33.48 33.41 34.21 33.78 31.92 32.12 32.53 32.65 33.11 34.40 32.48 30.85 29.90 31.94 32.62 33.76 33.79 35.03 35.77 36.83 40.25
46.49 45.45 44.29 43.36 42.39 41.53 41.50 40.82 40.36 39.95 38.31 37.53 37.44 37.24 36.98 36.24 36.01 35.09 34.58 33.06 32.26 32.17 32.12 32.06 32.22 32.70 32.33 32.31 32.43 30.64 31.14 29.17 29.15 28.60 28.86 29.65 30.98 32.64 32.83 31.45 31.23 33.99 34.54
45.42 44.75 44.05 43.58 42.93 41.63 41.11 40.58 39.65 38.68 37.77 37.28 36.33 36.07 35.88 35.68 34.19 31.77 31.57 30.46 29.86 29.75 30.00 30.99 31.83 33.56 35.74 33.91 32.18 30.21 28.54 26.95 26.79 26.92 26.98 28.15 29.17 29.81 29.60 32.70 32.00 32.47 33.28
44.82 44.05 44.39 43.71 42.24 41.22 40.43 39.80 38.59 37.19 36.76 35.91 35.24 34.96 34.14 35.29 31.99 31.43 30.14 27.75 29.10 28.58 27.42 28.73 30.04 32.89 32.96 34.43 34.37 34.18 31.43 26.85 25.95 25.24 25.61 25.10 26.10 27.93 29.63 29.23 28.07 27.24 25.92
44.83 44.36 43.57 41.56 40.82 40.60 40.14 38.29 36.76 35.72 35.22 34.49 34.30 34.10 33.19 32.82 32.34 31.49 30.22 28.01 27.20 26.79 26.79 27.44 28.47 31.31 31.27 31.03 31.60 31.86 31.81 32.57 29.72 27.66 25.46 26.10 25.89 27.11 27.92 27.21 26.39 26.38 26.61
43.49 42.97 42.65 41.17 40.60 39.88 38.75 37.30 35.78 35.26 34.21 33.54 33.59 33.04 31.78 32.18 33.12 32.63 30.47 26.73 26.04 25.91 26.32 26.18 26.18 27.03 28.78 29.77 28.77 27.51 27.83 28.98 29.70 30.00 29.26 28.85 29.57 30.09 30.22 30.08 29.96 29.83 29.04
41.01 41.77 40.96 40.37 39.66 39.02 37.31 35.66 34.86 34.18 33.28 33.13 33.42 31.84 30.19 29.89 32.55 32.30 30.19 26.14 26.19 25.23 25.96 26.56 27.11 26.58 28.91 30.47 27.83 26.44 26.65 27.85 31.84 33.10 33.13 33.20 33.18 33.13 32.88 30.30 27.18 26.73 25.21
40.18 40.82 40.00 39.74 39.23 37.63 36.84 35.27 34.57 33.96 33.93 32.69 31.50 30.78 31.96 29.03 32.29 31.37 28.95 25.45 23.21 24.41 25.77 26.61 28.09 28.70 29.15 28.34 27.62 27.46 25.98 27.53 27.06 26.46 26.70 27.91 29.37 29.61 32.00 31.77 30.34 25.65 24.64
40.94 40.58 39.26 38.17 38.22 37.52 36.29 35.00 33.67 32.87 31.67 30.57 29.87 29.77 29.83 30.57 29.19 29.72 28.48 25.55 24.17 23.73 23.75 24.01 26.24 29.05 29.22 28.14 27.55 25.58 25.17 26.36 25.92 25.09 24.81 25.10 26.30 27.85 29.12 30.37 31.31 30.07 26.31
39.61 39.22 38.81 38.63 38.08 37.36 34.91 34.21 33.52 31.05 30.00 28.55 25.94 26.98 28.03 27.51 29.02 28.38 27.55 26.19 25.43 23.48 23.05 25.41 25.91 27.24 27.44 27.13 26.54 27.22 27.54 26.04 23.88 23.50 24.23 25.03 26.68 27.85 30.02 30.80 31.25 32.33 32.70
37.36 36.94 36.97 37.04 36.58 35.73 33.17 31.30 30.43 29.97 27.74 26.52 26.33 24.33 24.48 25.54 24.97 26.51 25.13 25.04 24.66 23.02 24.62 24.69 26.12 27.73 26.44 26.64 27.17 27.69 26.33 24.96 24.97 25.49 25.09 26.38 28.07 29.42 30.58 29.90 31.15 32.04 32.46
35.25 35.22 35.23 34.19 33.78 33.71 33.68 32.00 29.91 28.25 26.66 26.56 24.48 22.81 22.17 22.64 21.73 21.93 22.39 22.78 23.60 23.48 22.97 23.09 25.61 24.92 24.50 24.96 26.65 26.66 26.92 27.10 25.43 25.81 25.65 27.23 29.05 28.86 29.65 30.86 31.45 31.00 29.06
34.58 33.94 32.60 32.43 32.57 32.25 32.20 29.58 29.23 27.75 26.04 24.19 23.15 22.15 18.91 17.48 20.13 22.85 22.60 22.05 22.00 22.68 22.06 23.60 21.93 21.09 21.26 22.90 23.18 23.64 24.90 24.96 24.37 24.74 25.51 26.65 27.59 28.33 27.80 28.05 30.01 26.65 27.59
31.56 31.44 31.70 31.17 31.33 30.95 30.31 29.46 28.93 27.43 26.88 25.93 23.97 21.44 19.98 22.85 24.06 23.77 23.68 23.87 24.31 23.56 21.93 19.89 18.89 19.74 19.79 20.84 21.09 21.33 22.72 23.43 23.68 24.68 24.59 25.60 25.79 26.18 26.91 27.95 30.65 26.70 23.00
30.65 30.42 30.76 29.98 30.98 29.35 28.82 28.47 26.24 28.36 28.39 27.33 25.48 25.08 24.70 23.46 24.32 23.69 23.47 23.42 24.08 22.31 18.78 18.74 18.61 18.26 18.33 19.53 20.01 20.77 20.73 23.08 23.77 23.64 24.42 24.37 24.73 25.06 26.24 25.95 26.50 26.72 26.74
31.32 29.21 30.95 31.30 29.79 28.83 28.36 28.05 28.12 26.91 24.93 26.19 27.22 25.73 24.01 24.70 24.53 24.05 23.48 22.09 19.00 19.16 18.21 17.79 17.39 17.93 18.06 18.40 18.86 19.49 20.31 21.93 21.29 21.96 22.99 23.54 23.09 24.35 25.50 24.81 24.97 25.97 26.05
31.24 29.67 29.01 30.56 29.97 29.19 28.82 28.68 28.28 27.37 26.29 25.68 24.28 24.38 21.39 23.54 24.31 24.18 23.39 18.28 15.53 16.04 16.56 16.94 17.49 17.87 17.88 18.15 18.11 18.61 19.58 20.84 20.23 20.04 20.94 22.50 24.15 24.42 23.01 24.80 25.02 23.21 23.73
31.36 28.56 26.62 29.04 29.64 29.35 28.67 27.74 26.98 26.80 26.12 25.78 23.64 22.01 18.96 17.34 16.49 16.84 18.96 16.22 12.87 15.28 16.08 16.55 17.41 17.87 17.43 17.30 17.14 17.59 18.09 18.18 18.51 18.69 18.67 20.26 22.51 23.97 24.15 23.28 24.15 23.60 23.91
30.50 29.93 28.83 28.79 28.47 28.94 27.89 27.47 27.43 26.65 25.67 25.55 24.75 20.20 14.32 15.09 17.20 16.20 17.62 18.06 13.50 13.03 13.05 15.78 16.60 15.75 16.19 16.21 16.61 15.90 16.17 15.46 15.54 16.22 16.46 18.12 20.98 21.31 23.12 23.65 23.87 23.73 22.34
28.27 28.50 29.25 29.35 29.28 28.50 28.49 27.50 26.72 27.00 26.31 25.61 24.73 22.95 16.63 17.31 17.57 15.93 18.81 16.99 16.65 13.19 13.99 13.54 15.27 15.05 15.47 14.86 15.18 14.15 13.63 11.99 11.84 13.19 13.49 15.30 18.69 19.02 20.77 22.04 19.45 17.98 22.12
29.41 29.27 29.16 28.79 29.27 28.97 28.25 27.79 27.48 27.58 27.40 26.07 25.08 24.40 24.02 22.78 17.28 16.12 15.38 18.03 18.02 17.83 13.44 12.27 12.18 13.04 13.68 13.33 14.97 14.47 12.72 11.21 11.52 12.45 11.64 12.54 17.41 17.02 18.13 17.85 19.07 15.76 14.87
29.88 29.76 28.91 28.66 29.25 28.99 28.61 28.13 28.44 26.99 26.71 26.80 26.54 25.50 24.46 22.96 18.25 16.09 14.99 17.30 14.40 15.72 16.39 11.18 11.38 12.65 13.14 11.68 12.12 13.10 13.07 11.32 11.35 11.88 11.18 13.70 16.16 15.92 16.18 16.32 12.53 16.43 10.12
29.51 30.17 29.08 28.93 29.06 29.13 29.06 28.47 28.06 27.82 27.43 27.75 26.96 26.40 24.73 24.34 20.23 19.28 16.09 15.25 13.72 12.46 12.63 9.70 11.53 11.71 11.93 12.95 11.84 11.47 9.80 11.04 9.77 10.38 11.64 14.26 13.23 12.76 11.95 14.38 11.29 15.05 9.98
29.69 29.17 28.16 29.76 29.38 29.53 29.01 28.96 28.11 27.59 26.96 27.46 27.43 26.94 26.16 23.40 19.94 20.37 16.30 14.47 13.44 12.08 11.26 11.23 10.05 8.77 10.35 12.13 12.11 12.67 10.40 9.94 9.04 9.68 10.69 13.64 11.93 10.45 8.17 9.65 9.57 11.35 11.01

GFSGL_sfc_wetblb_018.txt.gz
Wetbulb
42.77 42.65 41.65 41.09 41.30 40.44 39.21 38.76 38.20 38.30 38.72 39.43 38.16 35.93 34.73 33.77 33.43 32.07 31.89 32.33 30.97 30.09 30.04 29.78 29.73 30.49 29.85 29.69 30.56 31.84 33.07 33.56 29.66 29.61 31.84 31.46 31.04 31.34 33.14 34.23 39.07 41.58 41.85
42.98 42.22 40.88 40.48 39.53 39.35 38.90 38.73 38.68 39.37 39.72 38.78 37.57 35.52 34.58 33.40 32.36 31.20 30.88 30.69 29.77 28.77 28.71 28.23 28.10 30.14 27.37 27.69 28.33 28.85 28.94 29.87 28.39 26.10 27.32 28.04 28.82 30.68 31.11 30.54 34.12 36.57 37.60
41.71 40.60 40.57 40.31 38.98 38.21 38.18 37.95 38.72 37.75 37.50 37.01 34.02 34.98 34.09 33.41 32.05 31.07 29.97 29.10 28.09 27.76 27.62 27.23 27.11 27.00 25.75 26.25 26.83 27.60 28.17 30.41 28.70 26.84 25.02 26.90 27.53 29.06 28.87 30.32 30.40 31.48 35.37
41.43 40.38 39.66 39.51 39.74 38.56 36.86 39.24 39.65 38.13 38.45 37.12 35.30 34.70 33.89 32.75 31.42 30.06 29.30 27.35 27.00 27.34 27.96 27.39 26.46 25.55 25.11 25.50 26.74 27.20 28.28 26.54 26.90 26.26 25.04 24.85 25.58 27.61 28.16 27.23 26.52 28.66 28.55
39.00 38.15 38.74 39.15 39.07 38.65 38.92 38.18 38.97 38.91 38.42 35.01 34.19 32.61 32.02 31.02 30.72 28.31 28.12 27.38 26.33 26.04 26.47 26.54 26.13 27.12 29.28 28.15 28.05 27.00 28.68 26.71 26.65 25.24 24.30 23.76 23.76 23.41 23.91 26.00 24.64 25.09 26.32
36.16 38.98 39.61 39.71 39.24 38.73 38.55 38.25 37.89 38.11 34.75 33.70 32.57 31.97 30.18 31.39 32.29 32.06 30.87 26.40 26.66 25.89 24.52 25.22 25.00 27.22 26.74 28.31 28.70 29.49 29.19 27.84 26.23 26.96 24.64 23.59 22.35 22.76 23.61 23.38 22.88 21.97 21.68
37.71 38.28 38.54 38.64 38.32 37.84 38.30 38.59 37.74 35.26 33.04 31.27 30.97 30.82 28.49 29.27 32.73 33.63 32.32 28.34 26.42 25.02 24.10 24.17 24.89 26.18 26.36 25.61 27.28 28.50 28.17 29.28 28.03 27.63 25.73 25.21 23.86 24.30 24.33 23.22 22.48 22.61 22.73
36.22 36.67 36.76 36.94 36.43 36.87 36.72 36.33 35.72 32.22 32.58 30.32 29.69 28.38 27.99 29.01 32.16 31.11 30.25 26.25 24.87 25.03 24.93 24.37 23.91 23.55 24.84 25.24 26.19 27.31 26.82 27.48 27.16 27.23 26.33 26.35 26.54 26.58 26.07 26.42 26.28 25.96 28.21
35.81 35.90 36.47 36.50 35.89 35.96 34.35 33.60 34.10 32.05 28.94 28.92 28.65 27.92 26.93 26.51 29.76 29.15 27.41 23.06 23.77 22.97 24.07 24.12 23.96 23.72 26.04 28.48 25.61 26.01 24.46 25.36 28.04 29.21 30.28 30.48 30.15 31.14 31.36 29.46 26.68 26.61 24.43
35.70 35.88 35.82 36.20 35.75 34.90 33.59 32.92 31.75 28.66 29.65 28.92 28.05 26.77 27.61 24.07 27.16 27.64 26.18 21.87 18.31 21.52 22.59 23.34 24.61 24.93 26.33 27.55 26.18 25.25 23.08 23.43 23.88 24.36 24.99 25.70 26.38 26.20 27.68 26.38 24.75 21.95 22.53
35.06 34.88 34.36 34.14 33.77 34.32 33.95 32.25 27.96 28.61 27.37 24.73 24.04 24.54 24.74 24.81 23.19 25.78 25.61 22.57 21.40 21.80 21.12 21.68 23.21 25.82 26.84 26.58 26.90 25.05 24.65 26.64 25.89 25.29 23.99 23.18 23.65 24.49 25.51 26.06 26.49 24.80 22.98
33.42 33.09 32.26 31.95 31.98 32.04 27.80 26.88 27.25 25.38 24.86 22.96 12.38 17.45 20.60 21.66 24.29 24.45 25.00 24.61 24.11 21.05 21.22 22.42 24.05 25.57 25.99 26.34 26.10 26.61 26.77 26.09 24.80 24.33 23.54 23.30 23.70 24.82 26.94 28.28 29.01 29.59 28.07
31.64 30.88 30.13 30.33 30.61 29.16 26.43 25.26 25.03 24.24 20.85 21.09 22.49 15.37 19.21 21.81 19.48 23.67 24.17 24.45 24.06 22.15 22.61 24.01 23.98 24.15 24.38 24.47 25.15 25.63 24.68 23.97 22.89 21.76 23.14 24.29 26.25 27.89 29.52 29.71 30.55 30.93 31.19
30.34 29.67 29.44 28.55 28.73 28.20 26.63 26.62 24.37 19.83 18.34 22.98 20.29 18.06 15.42 17.75 17.57 18.90 21.25 17.63 22.88 22.47 21.66 22.01 21.67 22.62 21.82 22.88 22.75 23.22 23.31 23.34 23.01 22.27 22.96 24.91 26.77 27.45 27.45 28.99 27.41 29.27 29.12
30.03 29.51 27.75 27.11 26.91 26.82 25.69 25.09 24.85 23.57 22.07 19.82 18.65 17.36 6.29 5.76 15.80 24.69 23.30 21.30 22.10 19.23 14.86 18.26 18.78 17.85 17.70 18.70 19.50 20.21 21.16 22.46 21.48 22.17 22.75 23.29 24.83 25.69 26.25 27.60 26.92 25.69 22.98
28.70 27.92 26.16 24.94 23.68 25.65 26.19 25.68 28.53 28.02 27.74 28.38 26.48 16.31 12.82 20.67 25.16 25.74 24.81 23.33 22.46 21.46 13.94 12.94 14.50 14.51 14.84 16.65 16.25 16.84 18.30 19.84 20.48 20.68 20.83 21.30 22.08 23.49 24.40 24.57 23.63 22.40 23.81
28.60 28.46 25.93 26.07 24.87 23.11 21.80 22.35 17.11 23.99 28.60 28.82 29.12 27.23 26.33 24.51 25.40 25.02 24.24 22.30 21.15 18.43 8.59 8.81 10.36 13.09 13.89 15.77 15.35 15.73 15.44 17.01 18.90 18.67 18.63 18.84 19.62 22.23 22.10 20.58 19.52 20.98 22.80
29.53 27.43 24.32 23.99 22.21 23.06 18.50 26.07 19.61 17.92 13.82 15.93 23.86 27.65 26.23 24.83 24.54 23.93 23.18 19.52 10.87 11.97 9.49 7.25 12.05 14.15 14.21 14.76 14.62 14.11 14.58 13.75 13.49 14.76 15.58 16.02 17.12 20.24 19.70 19.64 19.11 14.08 17.98
30.44 24.24 20.23 17.66 20.12 20.54 19.31 22.53 22.70 19.88 21.78 18.58 15.60 19.15 17.71 23.19 23.20 23.09 21.69 7.27 5.50 6.38 8.57 9.16 7.32 12.67 12.95 13.28 12.02 11.89 9.24 10.06 9.49 10.20 11.90 13.43 14.43 17.25 17.53 19.86 17.61 13.26 14.42
30.19 25.48 19.70 18.96 18.75 22.19 19.98 19.69 24.22 21.46 18.91 20.41 13.23 12.80 11.62 11.03 4.78 1.91 -0.42 -2.77 -1.52 4.45 3.64 7.67 7.73 8.53 6.90 10.07 8.75 8.67 9.45 7.99 8.02 8.40 8.62 9.53 11.46 14.70 16.24 17.36 17.16 17.36 14.20
28.76 27.31 25.26 25.64 24.41 24.68 21.96 25.07 24.03 21.57 22.29 16.07 19.25 15.38 10.10 10.02 5.76 3.29 4.93 1.04 2.30 3.47 0.76 4.62 2.52 0.63 3.30 5.04 10.97 8.64 7.56 2.40 6.66 6.97 7.37 8.29 8.71 10.79 14.79 15.21 14.89 15.35 15.62
26.29 25.42 25.32 24.18 20.67 16.49 24.33 24.55 24.54 21.80 21.51 14.77 15.55 14.12 9.90 3.45 5.57 9.71 8.57 5.93 5.06 5.22 4.80 2.85 3.93 4.10 4.32 6.04 5.25 3.25 6.30 3.57 4.10 5.65 6.68 7.57 8.89 11.43 11.46 10.90 9.59 5.85 7.91
24.17 17.80 17.55 18.98 20.96 18.03 13.69 23.59 24.24 22.08 18.90 22.66 16.27 14.54 10.92 13.38 10.12 11.17 10.94 7.93 3.84 4.06 1.53 1.13 -1.22 2.12 1.06 -0.71 0.04 4.44 5.21 6.55 6.82 5.27 4.97 6.25 8.74 10.71 8.14 7.76 6.53 6.31 3.61
20.80 16.92 17.66 17.68 13.56 12.36 9.91 16.18 25.45 21.31 23.41 17.36 10.92 11.01 12.74 13.76 8.65 8.37 7.97 4.98 -0.61 1.76 -2.95 -0.46 1.59 4.34 3.49 -1.41 -1.36 2.14 6.39 4.13 6.60 7.76 6.24 5.85 7.80 9.68 7.23 7.11 7.44 4.08 1.06
20.60 16.04 14.85 16.73 17.15 16.57 14.62 15.21 21.58 25.59 22.82 20.62 13.59 7.38 10.80 13.80 14.59 6.47 10.02 5.70 4.80 0.85 3.64 -0.24 -0.52 2.62 2.38 0.62 2.19 4.24 2.75 6.16 4.85 7.00 6.74 7.23 6.67 6.55 5.78 6.89 4.26 4.76 0.67
26.76 26.39 23.33 21.02 20.10 16.97 16.96 18.52 17.83 20.47 23.73 23.47 22.58 13.25 12.80 12.06 12.20 8.02 7.93 2.07 4.46 4.06 0.54 -0.86 0.52 3.08 1.30 1.22 3.14 4.29 2.49 4.76 5.88 7.78 7.72 8.48 4.95 4.66 4.54 3.49 3.49 4.21 4.55